Date,TemperatureHighF,TemperatureAvgF,TemperatureLowF,DewpointHighF,DewpointAvgF,DewpointLowF,HumidityHigh,HumidityAvg,HumidityLow,PressureMaxIn,PressureMinIn,WindSpeedMaxMPH,WindSpeedAvgMPH,GustSpeedMaxMPH,PrecipitationSumIn
2013-2-1,82.8,64.1,50.2,54.4,50.1,43.3,99,65,25,30.01,29.94,9,1,12,0.00
2013-2-2,77.2,61.7,50.5,57.2,51.0,44.2,99,70,31,30.02,29.95,5,1,8,0.00
2013-2-3,78.3,61.0,47.7,55.5,51.6,46.5,99,75,37,29.98,29.85,5,1,8,0.00
2013-2-4,70.9,56.4,43.3,56.7,50.6,42.8,99,83,55,29.93,29.82,4,1,8,0.00
2013-2-5,59.7,54.8,45.7,54.9,52.6,44.9,99,92,80,29.93,29.83,4,1,10,0.00
2013-2-6,70.7,55.9,45.0,56.9,50.4,44.2,99,84,47,29.95,29.83,5,1,11,0.00
2013-2-7,66.9,52.7,41.2,53.4,47.6,40.9,99,84,55,29.98,29.81,5,1,11,0.01
2013-2-8,59.9,49.5,41.2,47.1,42.2,38.5,95,77,54,29.81,29.70,7,2,17,0.00
2013-2-9,65.8,50.3,35.1,42.8,37.1,32.0,99,68,31,29.88,29.77,4,2,13,0.00
2013-2-10,64.6,49.6,40.5,46.6,42.7,39.2,99,79,47,29.93,29.85,4,2,9,0.00
2013-2-11,71.1,52.2,37.6,44.7,36.8,17.4,99,66,13,30.07,29.90,8,2,16,0.00
2013-2-12,68.2,52.5,38.3,40.8,34.4,23.6,87,55,21,30.18,30.07,4,2,6,0.00
2013-2-13,68.4,52.3,36.3,51.5,41.4,32.9,97,70,32,30.10,29.98,5,1,9,0.00
2013-2-14,76.3,52.5,40.1,54.7,45.1,37.3,98,79,38,30.03,29.90,7,1,10,0.00
2013-2-15,86.4,67.6,44.8,40.4,29.0,18.7,75,29,11,30.03,29.94,8,3,26,0.00
2013-2-16,86.4,66.3,47.5,41.8,27.3,20.1,62,26,11,29.99,29.81,6,2,11,0.00
2013-2-17,70.9,55.6,40.3,55.2,43.8,30.8,99,68,28,29.86,29.76,5,1,13,0.00
2013-2-18,68.4,56.8,46.2,52.6,49.8,45.4,99,80,51,29.93,29.81,5,2,11,0.00
2013-2-19,62.6,54.1,49.1,51.3,48.1,42.6,99,82,52,29.85,29.65,6,2,17,0.00
2013-2-20,60.3,48.0,42.1,48.0,32.9,25.3,74,57,32,30.09,29.92,4,1,8,0.09
2013-2-21,68.2,52.3,38.8,46.2,37.2,31.3,77,58,33,30.09,30.01,6,2,13,0.00
2013-2-22,48.0,46.9,46.0,44.0,43.0,40.9,92,86,80,30.22,30.19,2,1,5,0.00
2013-2-23,69.1,59.6,38.3,54.2,45.3,35.4,92,61,44,30.20,29.94,5,2,13,0.00
2013-2-24,55.6,46.6,43.9,36.4,34.1,32.5,69,62,44,30.24,30.18,2,1,6,0.00
2013-2-25,72.0,54.9,38.5,33.2,24.6,16.8,71,37,14,30.26,29.63,5,2,13,0.00
2013-2-26,55.8,51.2,46.6,46.5,41.4,27.1,85,71,33,29.84,29.77,2,1,2,0.00
2013-2-27,84.0,63.7,49.8,31.4,21.9,15.0,46,22,11,30.01,29.84,10,3,14,0.00
2013-2-28,85.3,59.4,44.1,49.7,34.5,18.9,67,45,11,30.03,29.96,5,1,12,0.00